DW4379 Weather Reports


Display with metric or nautical units.
time (UTC)temp
F
wind
direction
speed
MPH
gust
MPH
rain 1hr
in
rain 24hr
in
rain mn
in
humidity
%
barometer
mb
20260906154004 77 31 3.0 7.0 0.00 0.00 0.00 72 1015.8
20260906153504 77 8 2.0 6.0 0.00 0.00 0.00 72 1015.8
20260906153004 77 4 1.0 6.0 0.00 0.00 0.00 72 1015.8
20260906152504 77 24 1.0 4.0 0.00 0.00 0.00 74 1015.8
20260906152218 77 43 2.0 8.0 0.00 0.00 0.00 73 1015.8
20260906151504 76 29 2.0 8.0 0.00 0.00 0.00 73 1015.7
20260906151218 76 11 2.0 7.0 0.00 0.00 0.00 73 1015.8
20260906150504 76 13 2.0 6.0 0.00 0.00 0.00 73 1015.9
20260906150003 76 10 2.0 6.0 0.00 0.00 0.00 73 1015.9
20260906145719 76 11 2.0 6.0 0.00 0.00 0.00 73 1015.9
20260906145003 76 31 2.0 8.0 0.00 0.00 0.00 74 1015.9
20260906144503 75 36 2.0 8.0 0.00 0.00 0.00 74 1015.8
20260906144004 75 28 3.0 6.0 0.00 0.00 0.00 74 1015.7
20260906143503 75 26 2.0 6.0 0.00 0.00 0.00 73 1015.7
20260906143004 75 16 1.0 5.0 0.00 0.00 0.00 74 1015.8
20260906142503 75 30 1.0 6.0 0.00 0.00 0.00 75 1015.7
20260906142217 75 34 2.0 6.0 0.00 0.00 0.00 74 1015.6
20260906141503 74 13 2.0 8.0 0.00 0.00 0.00 74 1015.8
20260906141003 74 12 1.0 8.0 0.00 0.00 0.00 73 1015.6
20260906140718 74 53 1.0 6.0 0.00 0.00 0.00 75 1015.5
20260906140004 74 42 2.0 6.0 0.00 0.00 0.00 75 1015.4
20260906135504 73 35 2.0 6.0 0.00 0.00 0.00 76 1015.6
20260906135004 73 41 2.0 6.0 0.00 0.00 0.00 76 1015.8
20260906134504 73 38 2.0 6.0 0.00 0.00 0.00 76 1015.7
20260906134003 73 30 1.0 5.0 0.00 0.00 0.00 77 1015.6
20260906133504 73 18 1.0 4.0 0.00 0.00 0.00 77 1015.6
20260906133217 72 22 1.0 4.0 0.00 0.00 0.00 78 1015.5
20260906132504 72 50 2.0 6.0 0.00 0.00 0.00 78 1015.5
20260906132004 72 46 1.0 6.0 0.00 0.00 0.00 78 1015.4
20260906131504 72 18 1.0 5.0 0.00 0.00 0.00 79 1015.4
20260906131217 72 12 1.0 5.0 0.00 0.00 0.00 80 1015.4
20260906130504 72 8 1.0 6.0 0.00 0.00 0.00 79 1015.3
20260906130004 72 26 1.0 7.0 0.00 0.00 0.00 80 1015.3
20260906125503 72 18 2.0 7.0 0.00 0.00 0.00 80 1015.3
20260906125003 72 8 1.0 5.0 0.00 0.00 0.00 80 1015.3
20260906124504 72 14 1.0 5.0 0.00 0.00 0.00 81 1015.2
20260906124004 72 18 1.0 5.0 0.00 0.00 0.00 80 1015.0
20260906123503 72 30 1.0 4.0 0.00 0.00 0.00 82 1015.0
20260906123004 71 24 1.0 4.0 0.00 0.00 0.00 82 1015.0
20260906122503 71 38 1.0 6.0 0.00 0.00 0.00 82 1015.0
20260906122219 71 38 1.0 6.0 0.00 0.00 0.00 83 1014.9
20260906121504 71 14 1.0 5.0 0.00 0.00 0.00 83 1014.9
20260906121004 71 3 1.0 5.0 0.00 0.00 0.00 84 1014.8
20260906120503 71 6 1.0 5.0 0.00 0.00 0.00 85 1014.6
20260906120004 71 11 1.0 5.0 0.00 0.00 0.00 86 1014.5
20260906115504 71 21 1.0 4.0 0.00 0.00 0.00 86 1014.3
20260906115004 72 18 1.0 4.0 0.00 0.00 0.00 87 1014.2
20260906114503 72 14 1.0 4.0 0.00 0.00 0.00 88 1014.1
20260906114004 72 33 0.0 2.0 0.00 0.00 0.00 89 1013.9
20260906113504 72 57 0.0 1.0 0.00 0.00 0.00 89 1013.9
20260906113004 72 10 1.0 5.0 0.00 0.00 0.00 89 1013.9
20260906112503 73 8 1.0 5.0 0.00 0.00 0.00 89 1013.8
20260906112004 73 10 1.0 4.0 0.00 0.00 0.00 90 1013.7
20260906111503 73 11 1.0 4.0 0.00 0.00 0.00 90 1013.6
20260906111003 73 16 1.0 4.0 0.00 0.00 0.00 90 1013.6
20260906110504 73 355 0.0 3.0 0.00 0.00 0.00 91 1013.4
20260906110004 73 2 1.0 5.0 0.00 0.00 0.00 91 1013.4
20260906105504 73 31 1.0 5.0 0.00 0.00 0.00 91 1013.4
20260906105003 73 31 1.0 3.0 0.00 0.00 0.00 91 1013.3
20260906104504 73 22 2.0 7.0 0.00 0.00 0.00 92 1013.3
20260906104003 73 30 2.0 7.0 0.00 0.00 0.00 91 1013.2
20260906103717 73 34 1.0 7.0 0.00 0.00 0.00 92 1013.2
20260906103003 73 25 1.0 5.0 0.00 0.00 0.00 92 1013.3
20260906102717 73 15 2.0 4.0 0.00 0.00 0.00 92 1013.3
20260906102004 73 3 1.0 5.0 0.00 0.00 0.00 92 1013.4
20260906101503 73 9 1.0 6.0 0.00 0.00 0.00 93 1013.4
20260906101004 73 9 1.0 6.0 0.00 0.00 0.00 93 1013.4
20260906100503 73 360 1.0 5.0 0.00 0.00 0.00 93 1013.4
20260906100003 73 4 1.0 5.0 0.00 0.00 0.00 93 1013.4
20260906095503 73 9 1.0 4.0 0.00 0.00 0.00 93 1013.2
20260906095004 73 8 2.0 5.0 0.00 0.00 0.00 93 1013.1
20260906094504 73 4 2.0 5.0 0.00 0.00 0.00 93 1013.0
20260906094003 73 359 1.0 5.0 0.00 0.00 0.00 93 1013.1
20260906093503 73 3 1.0 4.0 0.00 0.00 0.00 93 1013.0
20260906093218 73 4 1.0 4.0 0.00 0.00 0.00 93 1013.1
20260906092503 73 6 1.0 3.0 0.00 0.00 0.00 93 1012.9
20260906092218 73 5 1.0 3.0 0.00 0.00 0.00 93 1013.0
20260906091719 73 2 1.0 3.0 0.00 0.00 0.00 93 1013.0
20260906091003 73 4 1.0 3.0 0.00 0.00 0.00 93 1012.9
20260906090503 73 358 1.0 3.0 0.00 0.00 0.00 93 1012.9
20260906090004 73 358 1.0 3.0 0.00 0.00 0.00 93 1012.9
20260906085503 73 2 1.0 3.0 0.00 0.00 0.00 93 1012.9
20260906085004 73 3 1.0 3.0 0.00 0.00 0.00 93 1012.8
20260906084718 73 360 1.0 3.0 0.00 0.00 0.00 93 1012.8
20260906084003 73 1 1.0 3.0 0.00 0.00 0.00 93 1012.8
20260906083504 74 3 1.0 2.0 0.00 0.00 0.00 93 1012.8
20260906083003 74 5 1.0 3.0 0.00 0.00 0.00 93 1012.7
20260906082503 74 1 1.0 3.0 0.00 0.00 0.00 92 1012.7
20260906082217 74 356 1.0 3.0 0.00 0.00 0.00 92 1012.7
20260906081503 74 354 1.0 3.0 0.00 0.00 0.00 92 1012.8
20260906081003 74 7 0.0 2.0 0.00 0.00 0.00 92 1012.7
20260906080503 74 6 1.0 3.0 0.00 0.00 0.00 92 1012.6
20260906080003 74 9 1.0 6.0 0.00 0.00 0.00 92 1012.5
20260906075503 74 19 1.0 6.0 0.00 0.00 0.00 92 1012.5
20260906075004 74 17 1.0 4.0 0.00 0.00 0.00 92 1012.6
20260906074718 74 6 1.0 4.0 0.00 0.00 0.00 92 1012.5
20260906074004 74 360 1.0 4.0 0.00 0.00 0.00 92 1012.6
20260906073503 74 4 1.0 4.0 0.00 0.00 0.00 92 1012.6
20260906073004 74 5 1.0 3.0 0.00 0.00 0.00 92 1012.5
20260906072503 74 356 0.0 2.0 0.00 0.00 0.00 92 1012.5
20260906072003 74 360 0.0 2.0 0.00 0.00 0.00 92 1012.5
20260906071718 74 360 0.0 2.0 0.00 0.00 0.00 92 1012.5
20260906071003 74 355 0.0 2.0 0.00 0.00 0.00 91 1012.5
20260906070503 74 358 0.0 2.0 0.00 0.00 0.00 91 1012.5
20260906070004 74 358 0.0 2.0 0.00 0.00 0.00 91 1012.5
20260906065503 74 355 0.0 3.0 0.00 0.00 0.00 91 1012.6
20260906065003 74 355 0.0 3.0 0.00 0.00 0.00 90 1012.6
20260906064504 74 356 0.0 2.0 0.00 0.00 0.00 90 1012.6
20260906064003 74 356 0.0 2.0 0.00 0.00 0.00 90 1012.7
20260906063503 74 357 0.0 2.0 0.00 0.00 0.00 90 1012.8
20260906063003 74 358 0.0 2.0 0.00 0.00 0.00 90 1012.7
20260906062503 74 1 0.0 2.0 0.00 0.00 0.00 90 1012.6
20260906062003 74 355 0.0 2.0 0.00 0.00 0.00 89 1012.7
20260906061503 75 354 0.0 2.0 0.00 0.00 0.00 89 1012.8
20260906061218 75 357 0.0 2.0 0.00 0.00 0.00 89 1012.9
20260906060503 75 358 0.0 2.0 0.00 0.00 0.00 89 1012.8
20260906060004 75 360 0.0 2.0 0.00 0.00 0.00 89 1012.8
20260906055503 75 360 0.0 2.0 0.00 0.00 0.00 88 1012.8
20260906055003 75 359 0.0 1.0 0.00 0.00 0.00 88 1012.8
20260906054503 75 359 0.0 1.0 0.00 0.00 0.00 88 1012.8
20260906054004 76 360 0.0 2.0 0.00 0.00 0.00 88 1012.8
20260906053503 76 358 0.0 2.0 0.00 0.00 0.00 88 1012.8
20260906053218 76 358 0.0 2.0 0.00 0.00 0.00 88 1012.7
20260906052503 76 352 0.0 2.0 0.00 0.00 0.00 87 1012.8
20260906052003 76 355 0.0 2.0 0.00 0.00 0.00 87 1012.7
20260906051717 76 351 0.0 2.0 0.00 0.00 0.00 87 1012.7
20260906051218 76 351 1.0 6.0 0.00 0.00 0.00 87 1012.7
20260906050717 76 354 1.0 6.0 0.00 0.00 0.00 87 1012.7
20260906050218 76 357 1.0 4.0 0.00 0.00 0.00 87 1012.8
20260906045504 77 358 1.0 5.0 0.00 0.00 0.00 86 1012.7
20260906045003 77 360 1.0 5.0 0.00 0.00 0.00 86 1012.7
20260906044503 77 357 1.0 4.0 0.00 0.00 0.00 86 1012.6
20260906044003 77 1 1.0 6.0 0.00 0.00 0.00 85 1012.7
20260906043503 77 358 1.0 6.0 0.00 0.00 0.00 85 1012.6
20260906043003 77 358 2.0 5.0 0.00 0.00 0.00 85 1012.6
20260906042503 78 3 2.0 9.0 0.00 0.00 0.00 85 1012.4
20260906042003 78 360 2.0 9.0 0.00 0.00 0.00 84 1012.5
20260906041503 78 1 2.0 7.0 0.00 0.00 0.00 84 1012.4
20260906041003 78 2 2.0 8.0 0.00 0.00 0.00 83 1012.4
20260906040503 79 357 1.0 8.0 0.00 0.00 0.00 83 1012.4
20260906040009 79 359 2.0 6.0 0.00 0.00 0.00 83 1012.4
20260906035503 79 357 2.0 6.0 0.00 0.00 0.00 83 1012.3
20260906035003 79 2 2.0 7.0 0.00 0.00 0.00 82 1012.3
20260906034504 80 2 2.0 8.0 0.00 0.00 0.00 82 1012.4
20260906034003 80 358 2.0 8.0 0.00 0.00 0.00 82 1012.3
20260906033503 80 359 2.0 6.0 0.00 0.00 0.00 82 1012.4
20260906033003 80 359 2.0 6.0 0.00 0.00 0.00 81 1012.2
20260906032504 81 7 2.0 6.0 0.00 0.00 0.00 81 1012.2
20260906032004 81 4 2.0 6.0 0.00 0.00 0.00 80 1012.2
20260906031505 81 360 2.0 6.0 0.00 0.00 0.00 80 1012.2
20260906031003 82 359 2.0 8.0 0.00 0.00 0.00 80 1012.2
20260906030504 82 356 2.0 8.0 0.00 0.00 0.00 79 1012.1
20260906030217 82 356 2.0 7.0 0.00 0.00 0.00 79 1012.1
20260906025503 83 4 2.0 6.0 0.00 0.00 0.00 79 1011.9
20260906025217 83 6 3.0 7.0 0.00 0.00 0.00 78 1012.0
20260906024503 83 360 3.0 7.0 0.00 0.00 0.00 77 1011.8
20260906024003 83 1 3.0 7.0 0.00 0.00 0.00 76 1011.9
20260906023503 84 6 3.0 7.0 0.00 0.00 0.00 75 1011.8
20260906023004 84 6 2.0 7.0 0.00 0.00 0.00 75 1011.7
20260906022503 84 11 2.0 8.0 0.00 0.00 0.00 75 1011.7
20260906022003 84 11 3.0 8.0 0.00 0.00 0.00 74 1011.5
20260906021718 84 6 2.0 8.0 0.00 0.00 0.00 74 1011.5
20260906021004 84 3 2.0 8.0 0.00 0.00 0.00 74 1011.6
20260906020504 84 354 2.0 5.0 0.00 0.00 0.00 75 1011.5
20260906020003 85 350 2.0 7.0 0.00 0.00 0.00 75 1011.4
20260906015503 85 353 2.0 7.0 0.00 0.00 0.00 75 1011.4
20260906015004 85 356 3.0 7.0 0.00 0.00 0.00 75 1011.4
20260906014718 85 360 3.0 8.0 0.00 0.00 0.00 75 1011.4
20260906014003 85 10 4.0 9.0 0.00 0.00 0.00 75 1011.2
20260906013504 86 359 3.0 9.0 0.00 0.00 0.00 75 1011.2
20260906013219 86 2 3.0 9.0 0.00 0.00 0.00 75 1011.1
20260906012503 86 11 3.0 8.0 0.00 0.00 0.00 75 1010.8
20260906012004 87 2 2.0 7.0 0.00 0.00 0.00 74 1010.7
20260906011503 87 359 3.0 11.0 0.00 0.00 0.00 74 1010.7
20260906011219 87 357 4.0 11.0 0.00 0.00 0.00 75 1010.6
20260906010504 88 360 4.0 14.0 0.00 0.00 0.00 75 1010.6
20260906010219 88 2 3.0 14.0 0.00 0.00 0.00 75 1010.7
20260906005504 89 357 2.0 8.0 0.00 0.00 0.00 73 1010.5
20260906005003 90 357 2.0 8.0 0.00 0.00 0.00 72 1010.4
20260906004503 90 5 0.0 3.0 0.00 0.00 0.00 71 1010.3
20260906004218 90 0 0.0 0.0 0.00 0.00 0.00 72 1010.2
20260906003503 90 347 1.0 5.0 0.00 0.00 0.00 71 1010.2
20260906003004 90 346 1.0 5.0 0.00 0.00 0.00 70 1010.1
20260906002504 91 354 1.0 7.0 0.00 0.00 0.00 71 1010.1
20260906002003 91 355 2.0 7.0 0.00 0.00 0.00 70 1010.2
20260906001503 91 353 1.0 5.0 0.00 0.00 0.00 70 1010.2
20260906001004 91 338 0.0 1.0 0.00 0.00 0.00 70 1010.2
20260906000504 92 343 0.0 1.0 0.00 0.00 0.00 69 1010.2
20260906000004 92 349 0.0 3.0 0.00 0.00 0.00 69 1010.3
20260905235504 92 347 0.0 3.0 0.00 0.00 0.00 68 1010.2
20260905235218 92 348 0.0 2.0 0.00 0.00 0.00 68 1010.2
20260905234503 92 341 0.0 2.0 0.00 0.00 0.00 67 1010.1
20260905234003 93 332 0.0 2.0 0.00 0.00 0.00 66 1010.0
20260905233503 93 337 1.0 3.0 0.00 0.00 0.00 66 1009.9
20260905233218 93 338 1.0 3.0 0.00 0.00 0.00 66 1010.0
20260905232504 93 325 0.0 3.0 0.00 0.00 0.00 65 1009.9
20260905232003 94 311 0.0 2.0 0.00 0.00 0.00 65 1009.9
20260905231503 94 301 0.0 1.0 0.00 0.00 0.00 64 1009.9
20260905231003 94 329 0.0 3.0 0.00 0.00 0.00 63 1010.0
20260905230503 94 330 1.0 3.0 0.00 0.00 0.00 63 1009.9
20260905230004 94 326 1.0 2.0 0.00 0.00 0.00 62 1010.0
20260905225503 95 338 1.0 2.0 0.00 0.00 0.00 62 1009.9
20260905225004 95 348 1.0 7.0 0.00 0.00 0.00 61 1009.8
20260905224503 95 348 2.0 7.0 0.00 0.00 0.00 61 1009.8
20260905224003 95 348 2.0 6.0 0.00 0.00 0.00 61 1009.8
20260905223719 95 345 2.0 6.0 0.00 0.00 0.00 60 1009.8
20260905223003 95 334 1.0 4.0 0.00 0.00 0.00 59 1009.9
20260905222503 95 340 2.0 5.0 0.00 0.00 0.00 59 1009.8
20260905222004 96 338 1.0 5.0 0.00 0.00 0.00 58 1009.8
20260905221504 96 322 1.0 3.0 0.00 0.00 0.00 58 1009.8
20260905221003 96 330 1.0 4.0 0.00 0.00 0.00 57 1009.8
20260905220504 96 345 1.0 8.0 0.00 0.00 0.00 58 1009.8
20260905220217 96 341 1.0 8.0 0.00 0.00 0.00 57 1009.8
20260905215718 96 344 1.0 6.0 0.00 0.00 0.00 59 1009.8
20260905215004 96 346 1.0 6.0 0.00 0.00 0.00 57 1009.8
20260905214718 96 332 1.0 3.0 0.00 0.00 0.00 57 1009.9
20260905214004 96 333 1.0 5.0 0.00 0.00 0.00 57 1010.0
20260905213503 96 329 1.0 5.0 0.00 0.00 0.00 56 1010.0
20260905213004 96 321 1.0 3.0 0.00 0.00 0.00 57 1009.9
20260905212503 96 311 1.0 2.0 0.00 0.00 0.00 57 1009.9
20260905212003 96 311 1.0 2.0 0.00 0.00 0.00 57 1009.8
20260905211504 96 336 1.0 4.0 0.00 0.00 0.00 57 1009.9
20260905211003 97 338 1.0 4.0 0.00 0.00 0.00 56 1009.9
20260905210503 96 326 0.0 3.0 0.00 0.00 0.00 57 1010.0
20260905210004 96 312 0.0 2.0 0.00 0.00 0.00 58 1010.1
20260905205718 96 328 1.0 4.0 0.00 0.00 0.00 57 1010.1
20260905205003 96 336 1.0 7.0 0.00 0.00 0.00 58 1010.1
20260905204503 96 313 1.0 4.0 0.00 0.00 0.00 57 1010.2
20260905204003 97 306 1.0 2.0 0.00 0.00 0.00 57 1010.3
20260905203503 97 302 1.0 2.0 0.00 0.00 0.00 56 1010.3
20260905203003 98 315 1.0 3.0 0.00 0.00 0.00 54 1010.3
20260905202503 97 319 1.0 3.0 0.00 0.00 0.00 53 1010.3
20260905202004 97 311 1.0 2.0 0.00 0.00 0.00 52 1010.4
20260905201503 97 308 1.0 2.0 0.00 0.00 0.00 52 1010.5
20260905201003 97 306 1.0 3.0 0.00 0.00 0.00 53 1010.6
20260905200503 97 309 1.0 3.0 0.00 0.00 0.00 54 1010.6
20260905200004 98 310 1.0 2.0 0.00 0.00 0.00 53 1010.7
20260905195503 98 312 1.0 2.0 0.00 0.00 0.00 53 1010.6
20260905195218 97 316 1.0 3.0 0.00 0.00 0.00 53 1010.7
20260905194504 97 320 0.0 3.0 0.00 0.00 0.00 54 1010.6
20260905194004 97 325 1.0 5.0 0.00 0.00 0.00 56 1010.6
20260905193503 97 333 1.0 5.0 0.00 0.00 0.00 55 1010.6
20260905193004 98 329 1.0 5.0 0.00 0.00 0.00 55 1010.8
20260905192717 98 313 1.0 3.0 0.00 0.00 0.00 55 1010.8
20260905192003 97 318 1.0 2.0 0.00 0.00 0.00 58 1010.8
20260905191504 97 346 1.0 5.0 0.00 0.00 0.00 58 1010.8
20260905191004 97 333 1.0 5.0 0.00 0.00 0.00 58 1010.7
20260905190504 97 300 1.0 4.0 0.00 0.00 0.00 59 1010.9
20260905190004 98 286 0.0 4.0 0.00 0.00 0.00 57 1010.9
20260905185503 98 272 0.0 2.0 0.00 0.00 0.00 58 1010.9
20260905185218 98 273 1.0 2.0 0.00 0.00 0.00 58 1011.1
20260905184503 97 319 0.0 3.0 0.00 0.00 0.00 58 1011.1
20260905184003 97 321 0.0 3.0 0.00 0.00 0.00 59 1011.2
20260905183503 97 276 0.0 2.0 0.00 0.00 0.00 58 1011.3
20260905183003 97 275 0.0 2.0 0.00 0.00 0.00 58 1011.4
20260905182717 96 276 1.0 2.0 0.00 0.00 0.00 58 1011.4
20260905182003 96 311 1.0 3.0 0.00 0.00 0.00 58 1011.5
20260905181504 96 319 0.0 2.0 0.00 0.00 0.00 59 1011.7
20260905181004 96 98 0.0 2.0 0.00 0.00 0.00 61 1011.8
20260905180504 95 71 1.0 3.0 0.00 0.00 0.00 62 1011.7
20260905180004 94 44 2.0 5.0 0.00 0.00 0.00 62 1011.8
20260905175717 94 33 2.0 5.0 0.00 0.00 0.00 63 1011.9
20260905175004 95 339 0.0 3.0 0.00 0.00 0.00 62 1011.9
20260905174503 95 138 0.0 2.0 0.00 0.00 0.00 62 1011.9
20260905174003 94 181 0.0 2.0 0.00 0.00 0.00 63 1011.9
20260905173503 94 227 0.0 2.0 0.00 0.00 0.00 62 1012.0
20260905173004 94 235 0.0 2.0 0.00 0.00 0.00 62 1012.0
20260905172503 94 103 0.0 2.0 0.00 0.00 0.00 64 1012.0
20260905172218 93 19 0.0 2.0 0.00 0.00 0.00 65 1012.0
20260905171504 93 351 0.0 2.0 0.00 0.00 0.00 65 1012.0
20260905171004 93 218 0.0 2.0 0.00 0.00 0.00 65 1012.2
20260905170504 93 180 1.0 2.0 0.00 0.00 0.00 66 1012.2
20260905170004 92 131 0.0 2.0 0.00 0.00 0.00 66 1012.3
20260905165504 92 225 0.0 2.0 0.00 0.00 0.00 65 1012.3
20260905165003 92 128 1.0 5.0 0.00 0.00 0.00 66 1012.4
20260905164718 92 105 1.0 5.0 0.00 0.00 0.00 68 1012.4
20260905164003 91 118 1.0 4.0 0.00 0.00 0.00 69 1012.3
20260905163504 91 136 1.0 3.0 0.00 0.00 0.00 69 1012.5
20260905163003 91 127 1.0 3.0 0.00 0.00 0.00 69 1012.7
20260905162504 90 117 2.0 4.0 0.00 0.00 0.00 71 1012.6
20260905162217 90 113 2.0 4.0 0.00 0.00 0.00 71 1012.7
20260905161503 90 102 2.0 6.0 0.00 0.00 0.00 71 1012.7
20260905161003 90 107 2.0 6.0 0.00 0.00 0.00 71 1012.7
20260905160504 89 115 1.0 6.0 0.00 0.00 0.00 71 1012.7
20260905160217 89 112 2.0 6.0 0.00 0.00 0.00 72 1012.8
20260905155503 89 123 1.0 4.0 0.00 0.00 0.00 71 1012.6
20260905155003 88 131 1.0 4.0 0.00 0.00 0.00 72 1012.7